Dewpoint
69 72 74 75 75 75 74 73 72 72 71 70 70 69 70 70 71 71 71 71 71 72 71 70 70 71 71 71 71 70 70 70 70 70 71 70 70 70 70 70 70 67 69
70 72 74 74 75 74 74 73 72 72 72 71 71 69 70 70 70 70 71 71 71 72 71 69 70 71 71 70 69 69 70 69 70 70 69 69 69 70 70 70 70 69 69
70 72 73 74 74 74 74 73 72 72 72 72 71 70 69 69 70 70 70 71 71 71 70 69 70 70 70 70 70 70 69 70 70 69 69 67 67 70 69 70 71 70 69
70 71 72 74 74 74 73 73 73 72 72 72 71 71 70 69 69 71 70 71 71 71 70 70 70 70 71 70 70 70 70 69 69 68 66 66 66 69 69 68 69 69 68
70 71 72 73 74 74 73 73 73 72 72 72 71 71 71 71 70 70 70 71 71 70 70 70 70 70 71 70 70 70 69 69 68 66 65 65 66 66 68 68 67 68 66
70 70 72 73 74 74 73 73 73 72 72 72 71 71 70 71 71 70 71 71 70 70 70 69 69 70 71 70 69 69 69 67 64 64 65 65 64 67 67 68 68 67 66
67 70 72 73 74 73 73 73 72 72 72 72 71 71 71 71 70 70 70 70 70 70 69 69 69 69 70 70 69 69 68 66 62 62 63 64 62 66 67 67 66 65 64
60 70 71 72 72 72 73 73 72 72 72 71 71 71 71 70 71 70 70 69 69 70 69 69 69 69 70 70 68 68 66 64 62 62 63 64 65 62 65 65 65 63 62
52 55 65 70 71 70 71 71 71 71 71 70 71 70 70 70 70 70 69 69 69 69 68 69 69 69 69 70 68 67 65 63 60 62 63 64 64 62 64 64 62 61 61
48 49 51 55 60 69 70 70 70 70 70 70 70 69 68 67 68 69 68 68 69 69 68 69 69 69 69 68 67 66 64 63 62 63 63 63 64 63 61 62 60 60 60
43 45 46 48 49 52 68 69 69 69 68 69 68 66 66 66 66 66 66 68 69 69 68 69 69 69 67 66 66 65 63 59 59 59 61 64 62 65 64 63 63 61 61
38 41 44 44 45 47 57 67 69 69 69 69 67 67 66 66 65 64 65 67 68 67 68 69 68 67 65 65 65 64 62 59 58 59 61 63 63 64 62 60 61 62 62
35 39 41 42 42 45 49 51 68 68 68 68 67 66 65 64 64 64 66 66 66 65 66 66 65 64 64 65 65 63 61 61 60 59 61 59 60 62 61 62 58 59 58
33 35 38 40 40 42 44 49 54 67 67 67 67 65 63 62 64 65 64 64 64 63 62 62 61 60 61 62 63 63 62 62 61 61 62 62 62 59 59 59 58 61 60
30 33 36 38 39 39 42 48 50 61 66 66 66 65 61 62 63 63 62 62 61 60 60 58 58 58 61 62 63 63 61 60 61 62 62 62 63 63 60 59 60 60 61
28 31 34 35 38 38 40 44 49 53 65 65 66 64 61 61 61 62 61 59 59 57 57 55 55 57 58 60 62 62 60 59 61 63 63 63 63 64 63 59 58 58 58
27 29 31 33 35 37 38 42 46 49 63 66 65 64 60 60 60 61 60 59 58 57 55 53 53 54 56 58 61 60 59 57 60 61 61 60 60 61 62 60 58 58 58
26 27 29 30 33 35 36 40 44 49 56 66 66 65 60 59 58 59 59 58 58 57 54 54 53 52 56 55 56 57 57 56 56 58 58 57 57 56 59 59 58 58 59
26 26 27 28 31 33 35 39 43 47 53 65 66 65 60 59 56 56 57 56 56 56 54 53 53 53 53 53 53 53 53 54 54 55 56 55 55 54 55 58 60 60 60
25 25 26 28 29 31 34 39 43 49 55 62 65 64 61 59 56 55 55 54 55 54 53 53 52 54 53 52 50 51 51 51 52 53 53 54 53 53 53 56 58 58 59
24 24 25 26 28 30 33 35 39 43 58 61 65 63 61 59 57 56 56 54 54 53 52 52 52 53 52 51 50 50 51 51 51 51 52 53 53 53 53 54 58 59 58
24 24 26 26 27 28 32 33 37 40 44 54 60 63 62 60 58 57 55 54 53 52 52 51 52 53 52 51 49 49 48 49 51 48 50 52 52 52 53 54 54 56 58
23 25 25 26 27 27 29 32 36 41 45 51 57 63 62 61 59 58 55 54 53 52 52 51 52 52 51 51 49 48 47 45 48 49 47 50 51 52 52 53 53 54 55
23 25 25 26 26 26 27 29 32 36 41 51 57 60 62 60 59 58 55 54 53 53 52 52 52 52 51 50 49 50 49 48 46 46 48 48 50 51 51 51 52 53 55
23 25 25 26 25 26 27 27 31 34 38 43 47 54 62 60 59 57 55 54 53 53 52 52 52 51 51 50 49 51 50 49 48 46 45 47 49 50 51 51 51 51 53
23 23 24 24 24 24 25 26 28 31 34 40 44 53 60 61 59 57 55 54 54 53 53 53 52 51 51 50 49 51 49 47 47 47 46 47 48 50 52 52 52 52 52
Lifted_Index
-6 -7 -8 -8 -7 -7 -6 -5 -4 -3 -3 -2 -1 -1 -1 -1 -1 -1 -2 -2 -2 -2 -2 -1 -1 -2 -2 -1 -1 -1 -0 -0 -0 -0 -1 -1 -1 -1 -1 -1 -1 -1 -1
-6 -7 -8 -7 -7 -7 -6 -5 -4 -4 -3 -2 -2 -1 -1 -1 -1 -1 -1 -2 -2 -2 -2 -1 -1 -2 -1 -1 -1 -0 -0 -0 -0 -0 -0 -1 -1 -1 -1 -1 -1 -1 -1
-6 -7 -7 -7 -7 -7 -6 -5 -5 -4 -4 -3 -2 -1 -1 -1 -1 -1 -1 -2 -2 -2 -1 -1 -1 -1 -1 -1 -0 -0 -0 0 0 0 0 0 -0 -1 -1 -1 -1 -0 -0
-6 -6 -7 -7 -7 -7 -6 -5 -5 -4 -4 -3 -2 -2 -1 -1 -1 -1 -1 -1 -2 -1 -1 -1 -1 -1 -1 -1 -1 -0 0 0 1 1 1 1 0 0 -0 -0 0 0 1
-6 -6 -7 -7 -7 -7 -6 -6 -5 -4 -4 -4 -3 -2 -1 -1 -1 -1 -1 -1 -1 -1 -1 -1 -1 -1 -1 -1 -0 0 1 1 2 2 2 2 1 1 1 1 1 1 2
-6 -6 -7 -7 -7 -7 -7 -6 -5 -4 -4 -4 -3 -2 -2 -1 -1 -1 -1 -1 -1 -1 -0 -0 -0 -1 -1 -0 0 1 1 2 3 3 3 2 2 2 1 1 1 2 3
-6 -6 -7 -7 -7 -7 -7 -6 -5 -5 -4 -4 -3 -3 -2 -2 -1 -1 -1 -0 -0 -0 -0 0 -0 -0 -0 0 1 1 2 3 4 4 3 3 3 3 2 2 2 3 4
-5 -6 -7 -7 -7 -7 -6 -6 -6 -5 -4 -4 -3 -3 -2 -2 -1 -1 -0 0 -0 -0 0 0 -0 -0 0 0 1 2 3 4 4 4 4 3 4 4 3 3 4 5 5
-4 -5 -6 -6 -6 -6 -6 -6 -6 -5 -4 -3 -3 -3 -2 -1 -1 -1 0 0 0 0 0 0 0 0 0 1 1 3 4 4 5 4 4 4 4 4 4 4 5 6 6
-3 -4 -5 -5 -5 -5 -6 -6 -6 -5 -4 -3 -3 -2 -2 -1 -0 -0 0 0 0 0 0 0 0 0 1 1 2 3 4 5 5 4 4 4 4 4 5 5 6 6 7
-2 -3 -4 -4 -4 -4 -5 -5 -6 -5 -4 -3 -2 -2 -1 -0 0 1 1 1 0 1 0 0 0 1 1 2 2 3 4 5 5 5 5 5 5 4 5 6 6 6 7
-1 -1 -2 -3 -4 -4 -4 -4 -5 -5 -4 -3 -2 -1 -0 0 1 1 1 1 1 1 1 1 1 2 2 2 2 3 4 5 6 6 6 6 5 5 6 6 7 7 7
3 2 1 -0 -1 -2 -1 -1 -2 -4 -4 -3 -2 -1 -0 1 2 2 2 2 2 2 2 2 2 2 2 2 2 3 4 5 6 6 6 6 6 6 7 7 7 7 7
7 7 6 5 2 1 1 2 -0 -3 -3 -2 -2 -1 -0 1 1 2 2 2 2 3 3 3 3 3 2 2 3 3 4 5 6 6 6 6 6 7 7 7 8 8 7
11 11 10 9 7 5 4 3 1 -1 -2 -2 -2 -1 -0 0 1 2 2 3 3 4 4 4 4 3 3 3 3 3 4 5 5 5 5 6 6 6 7 7 8 8 7
13 13 13 12 11 10 7 4 2 1 -1 -2 -2 -1 -0 0 1 2 3 3 3 4 5 5 5 4 4 3 3 4 4 5 5 5 5 5 5 5 6 7 8 8 8
15 14 14 14 14 13 10 6 3 1 -1 -2 -2 -1 -0 -0 1 2 3 3 4 5 5 6 6 5 4 4 4 4 4 5 5 5 5 5 6 6 7 7 8 8 8
15 16 16 16 15 14 11 7 4 2 0 -2 -2 -1 -1 -0 1 2 3 4 4 5 6 6 6 6 5 5 5 5 5 5 6 6 6 6 7 8 8 8 8 8 8
16 16 16 16 15 14 11 8 5 2 1 -1 -2 -2 -1 -0 1 2 3 4 4 5 6 6 6 6 6 6 6 6 6 6 7 7 7 8 8 8 9 9 8 8 8
16 17 16 15 15 13 11 8 5 2 2 0 -1 -2 -1 -0 0 2 3 3 4 5 6 6 6 6 6 6 6 7 7 7 7 8 8 8 8 9 9 9 9 8 8
16 16 15 15 14 12 10 7 4 2 2 2 -0 -1 -1 -1 -0 1 2 3 3 4 5 6 6 6 7 7 7 7 7 7 7 8 8 9 9 9 10 9 9 8 8
16 16 15 14 13 12 10 7 4 2 2 2 1 -0 -1 -1 -1 0 1 2 3 4 5 5 6 6 7 7 8 8 8 8 8 8 9 9 9 10 10 9 9 9 8
16 16 15 14 13 11 9 7 5 3 2 3 3 1 -1 -1 -1 -0 0 1 2 3 5 6 6 6 7 7 8 8 8 8 8 9 9 10 10 10 10 9 9 9 9
17 16 16 15 14 12 9 8 6 4 2 2 3 2 -0 -1 -1 -1 -0 0 1 3 4 6 6 7 7 7 8 8 9 9 9 9 10 10 10 10 9 9 9 9 9
17 17 16 16 15 12 10 8 7 5 3 3 3 3 1 -0 -0 -1 -1 -0 1 2 4 5 6 7 7 7 8 8 8 9 9 9 9 10 10 10 10 9 9 9 9
18 17 17 16 15 13 10 8 7 6 4 3 3 3 2 0 -0 -1 -1 -0 0 2 4 5 6 7 7 7 7 8 8 9 9 9 9 10 10 10 10 9 9 9 9